www.pogodaiklimat.ru

Погода и климат >> Архив погоды >> Италия >> Roma


АРХИВ ПОГОДЫ в Roma

Время (UTC), дата Ветер
(напр.,м/с)
 
Видим.   Явления Облачность Т
(С)
Тd
(С)
f
(%)
Тe
(С)
Тes
(С)
Комфортность P
(гПа)
Po
(гПа)
Тmin
(С)
Tmax
(С)
R
(мм)
S
(см)
18 15.02 СЗ 2 15 км ясно +10.0 +7.1 82 +8 +8 по сезону 1033.8 1033.3 +15.5
21 15.02 СВ 2 15 км ясно +7.7 +5.3 85 +6 +6 по сезону 1033.8 1033.3
00 16.02 СВ 1 7000 м дымка ясно +5.8 +4.1 89 +6 +6 по сезону 1033.6 1033.1
03 16.02 СВ 1 5000 м дымка ясно +3.8 +3.1 95 +3 +3 по сезону 1033.1 1032.6
06 16.02 СВ 2 3500 м туман местами ясно +1.5 +0.9 96 -2 -2 прохладно 1033.0 1032.5 +0.7 0.2
09 16.02 СВ 2 9000 м дымка {туман} ясно +9.7 +4.7 71 +8 +13 по сезону 1033.3 1032.8
12 16.02 З 4 13 км ясно +13.1 +7.2 67 +12 +17 по сезону 1032.5 1032.0
15 16.02 З 4 40 км ясно +13.6 +7.0 64 +12 +13 тепло 1031.0 1030.5
18 16.02 З 1 40 км 1/0
[Ci fib]
+10.2 +7.4 83 +10 +10 тепло 1031.1 1030.6 +14.0
21 16.02 ЮВ 1 15 км ясно +6.6 +5.0 90 +7 +7 по сезону 1031.4 1030.9
00 17.02 В 1 7000 м дымка ясно +4.0 +3.1 94 +2 +2 по сезону 1030.9 1030.4
03 17.02 В 1 6000 м дымка ясно +3.7 +2.8 94 +2 +2 по сезону 1029.7 1029.2
06 17.02 СВ 2 6000 м дымка ясно +3.5 +2.5 93 +1 +1 по сезону 1029.1 1028.6 +3.1
09 17.02 В 2 7000 м дымка 5/0
[Ac cast Cs]
+10.6 +5.7 72 +9 +14 по сезону 1029.0 1028.5
12 17.02 З 4 20 км 4/4 720 м
[Cu hum Ac lent]
+14.7 +9.2 70 +14 +17 тепло 1027.1 1026.6
15 17.02 Ю 5 20 км 9/9 540 м
[Cu Sc]
+14.3 +9.6 73 +13 +13 тепло 1025.1 1024.7
18 17.02 Ю 2 20 км 4/4 900 м
[Cu hum Ac lent]
+12.9 +9.4 79 +12 +12 тепло 1024.7 1024.2 +15.3
21 17.02 ЮЗ 6 20 км 4/4 900 м
[Cu hum Ac lent]
+12.7 +9.3 80 +10 +10 тепло 1024.3 1023.8
00 18.02 Ю 4 20 км 3/3 540 м
[Cu hum Ac lent]
+11.9 +9.1 83 +10 +10 тепло 1022.9 1022.4
03 18.02 Ю 6 20 км дождь 6/3 600 м
[Cu hum As trans]
+12.2 +9.3 82 +10 +10 тепло 1021.1 1020.6
06 18.02 З 3 20 км слабый дождь {ливн. осадки} 6/6 600 м
[Cu med, cong Ac lent]
+12.3 +9.4 82 +11 +11 тепло 1020.8 1020.3 +11.8 1
09 18.02 СВ 4 20 км {гроза, дождь} 6/6 600 м
[Cu med, cong Ac trans]
+10.3 +7.4 82 +8 +9 по сезону 1021.5 1021.0
12 18.02 С 4 60 км {гроза, дождь} 3/3 750 м
[Cu hum Cc]
+14.0 +7.1 63 +13 +17 по сезону 1020.4 1019.9 8
15 18.02 С 4 60 км 3/3 900 м
[Cu hum Cc]
+15.3 +4.4 48 +15 +15 тепло 1019.3 1018.8
18 18.02 С 5 60 км ясно +10.9 +1.4 52 +9 +9 по сезону 1020.4 1019.9 +15.6 8
21 18.02 СВ 2 60 км ясно +7.8 +1.1 63 +6 +6 по сезону 1022.0 1021.6
00 19.02 С 2 60 км 6/4 750 м
[Cu hum Ac cuf]
+6.7 +0.7 66 +5 +5 по сезону 1022.7 1022.2
03 19.02 СВ 3 50 км 3/1 1200 м
[Cu hum Ac cuf]
+6.0 +0.2 66 +3 +3 по сезону 1022.9 1022.4
06 19.02 СВ 2 >70 км 1/1 900 м
[Cu hum]
+4.1 +0.1 75 +1 +1 по сезону 1023.9 1023.4 +3.9
09 19.02 СВ 4 >70 км 1/1 1050 м
[Sc diur, vesp]
+10.0 +0.8 53 +8 +11 по сезону 1025.1 1024.6
12 19.02 З 5 >70 км 1/1 1050 м
[Cu hum]
+13.7 +4.8 55 +12 +16 по сезону 1023.9 1023.5
15 19.02 З 6 >70 км ясно +12.5 +5.6 63 +10 +11 по сезону 1022.8 1022.3
18 19.02 З 3 >70 км ясно +9.9 +3.7 65 +8 +8 по сезону 1022.9 1022.4 +14.2
21 19.02 В 2 30 км ясно +5.5 +3.3 86 +3 +3 по сезону 1023.5 1023.0
00 20.02 С 2 30 км ясно +3.3 +1.8 90 +1 +1 по сезону 1023.7 1023.2
03 20.02 СЗ 1 30 км ясно +1.9 +0.6 91 0 0 прохладно 1023.4 1022.9
06 20.02 В 2 30 км ясно +2.5 -0.1 83 0 0 по сезону 1023.3 1022.8 +1.0
09 20.02 В 2 28 км ясно +10.0 +4.1 67 +9 +15 по сезону 1023.9 1023.4
12 20.02 З 3 30 км 6/0
[Ac trans]
+13.8 +2.3 46 +13 +18 тепло 1023.2 1022.7
15 20.02 СЗ 3 30 км 8/0
[Ac trans]
+12.7 +4.7 58 +11 +12 по сезону 1022.0 1021.5
18 20.02 СЗ 3 30 км ясно +8.9 +1.6 60 +7 +7 по сезону 1022.5 1022.0 +14.1
21 20.02 С 2 30 км ясно +4.9 +1.9 81 +2 +2 прохладно 1022.8 1022.3
00 21.02 С 2 25 км ясно +2.0 +0.1 87 -1 -1 прохладно 1023.1 1022.6
03 21.02 С 1 25 км ясно +0.7 -0.8 90 -1 -1 прохладно 1022.8 1022.3
06 21.02 В 2 25 км ясно +2.4 -0.4 82 -1 -1 прохладно 1023.2 1022.7 +0.1
09 21.02 В 2 25 км 3/0
[Ci]
+9.7 +2.7 62 +9 +15 по сезону 1023.7 1023.2
12 21.02 З 4 30 км 6/0
[Cs]
+14.0 +2.1 44 +13 +18 по сезону 1022.5 1022.1
15 21.02 З 4 30 км 6/0
[Cs]
+13.8 +8.0 68 +13 +14 тепло 1021.6 1021.1
18 21.02 З 3 30 км 4/0
[Cs]
+11.4 +7.8 79 +10 +10 по сезону 1021.8 1021.4 +14.9
21 21.02 С 1 30 км 3/0
[Ac trans]
+7.1 +5.5 90 +6 +6 по сезону 1022.0 1021.6
00 22.02 В 2 8000 м дымка 3/3 1000 м
[Cu hum]
+5.6 +4.7 94 +3 +3 по сезону 1022.2 1021.7
03 22.02 В 3 5000 м дымка 3/3 1000 м
[Cu hum]
+4.1 +3.4 95 +1 +1 прохладно 1021.5 1021.0
06 22.02 В 3 5000 м дымка 6/0
[Ac As]
+4.6 +3.6 93 +1 +1 по сезону 1021.5 1021.0 +3.7
09 22.02 В 3 10 км 9/8 1320 м
[Cu Sc Ac As]
+10.0 +6.9 81 +8 +9 по сезону 1022.0 1021.5
12 22.02 Ю 5 10 км 9/3 700 м
[Cu hum Ac As]
+15.1 +8.5 65 +14 +15 тепло 1021.2 1020.7

 

Местоположение метеостанции Roma (Италия): широта 41.80 долгота 12.23 высота над уровнем моря 3 м.

В архиве по умолчанию представлена погода в Roma за последнюю неделю. Архивные данные за месяц целиком и за предыдущие месяцы, начиная с января 2011 года, Вы можете получить, выбрав интересующий диапазон дат из раскрывающегося списка и нажав кнопку "Ввод!".

Внимание! Время в таблицах - всемирное. Для получения местного времени необходимо прибавить поправку, которая в Roma равна 1 ч.

Смотрите также архив погоды в соседних городах и на ближайших метеорологических станциях:

Погода в Pratica di Mare (Италия) (25 км)
Погода в Vigna di Valle (Италия) (31 км)
Погода в Civitavecchia (Италия) (42 км)
Погода в Guidonia (Италия) (47 км)
Погода в Latina (Италия) (62 км)
Погода в Latina (Италия) (62 км)
Погода в Viterbo (Италия) (72 км)
Погода в Frosinone (Италия) (91 км)
Погода в Torre Olevola (Италия) (96 км)
Погода в Monte Terminillo (Италия) (97 км)

Пояснения к столбцам:

Ветер - указаны скорость ветра в м/с - средняя за 10 мин, порывы в срок и между сроками (в фигурных скобках) и направление, откуда дует ветер: С - северный, СВ - северо-восточный, В - восточный, ЮВ - юго-восточный, Ю - южный, ЮЗ - юго-западный, З - западный, СЗ - северо-западный.
Видимость - горизонтальная дальность видимости в метрах или километрах. При видимости от 1 до 10 км при отсутствии осадков обычно наблюдается дымка, при ухудшении видимости до 1 км и менее - туман. В сухую погоду видимость может ухудшаться дымом, пылью или мглою.
Явления - указаны атмосферные явления, наблюдавшиеся в срок или в последний час перед сроком; фигурными скобками обозначены явления, наблюдавшиеся между сроками (за 1-3 часа до срока); квадратными скобками обозначены град или гололедные отложения с указанием их диаметра в мм.
Облачность - указаны через наклонную черту общая и нижняя облачность в баллах и высота нижней границы облаков в метрах; квадратными скобками обозначены формы облаков: Ci - перистые, Cs - перисто-слоистые, Cc - перисто-кучевые, Ac - высококучевые, As - высокослоистые, Sc - слоисто-кучевые, Ns - слоисто-дождевые, Cu - кучевые, Cb - кучево-дождевые. Подробнее классификацию облаков см. в Атласе облаков (PDF).
T - Температура воздуха - температура, измеренная на высоте 2 м над землей.
Td - Температура точки росы - температура, при понижении до которой содержащийся в воздухе водяной пар достигнет насыщения.
f - Относительная влажность воздуха - влажноcть воздуха, измеренная на высоте 2 м над землей.
Te - Эффективная температура - температура, которую ощущает одетый по сезону человек в тени. Характеристика душности погоды. При расчете учитывается влияние влажности воздуха и скорости ветра на теплоощущения человека.
Tes - Эффективная температура на солнце - температура, которую ощущает человек, с поправкой на солнечный нагрев. Характеристика знойности погоды. Зависит от высоты солнца над горизонтом, облачности и скорости ветра. Ночью, в пасмурную погоду, а также при ветре 12 м/с и более поправка равна нулю.
P - Атмосферное давление - приведенное к уровню моря атмосферное давление.
Po - Атмосферное давление - измеренное на уровне метеостанции атмосферное давление.
Tmin - Минимальная температура - минимум температуры воздуха на высоте 2 м над землей.
Tmax - Максимальная температура - максимум температуры воздуха на высоте 2 м над землей.
R - Количество осадков - Количество выпавших осадков, мм. При наведении курсора мыши на число - период времени, за который выпало указанное количество осадков.
S - Снежный покров - Высота снежного покрова, см. При наведении курсора мыши на число - состояние снежного покрова и степень покрытия местности в баллах.